Munising, MI

7:00 AM EDT on May 27, 2017 (GMT -0400)
Munising

Weather History for KP53 - August, 2013

Change the Weather History Date:

Wednesday, August 7, 2013

  Actual Average (KISQ) Record (KISQ)
Temperature  
Mean Temperature 58 °F -  
Max Temperature 64 °F 75 °F 91 °F (2001)
Min Temperature 51 °F 56 °F 33 °F (2004)
Degree Days  
Heating Degree Days 7    
Growing Degree Days 8 (Base 50)    
Moisture  
Dew Point 56 °F    
Average Humidity 86    
Maximum Humidity 93    
Minimum Humidity 69    
Precipitation  
Precipitation 0.10 in - - ()
Sea Level Pressure  
Sea Level Pressure 29.83 in    
Wind  
Wind Speed 6 mph (NW)    
Max Wind Speed 16 mph    
Max Gust Speed 22 mph    
Averages and records for this station are not official NWS values.
T = Trace of Precipitation, MM = Missing Value Source: NWS Daily Summary

Daily Weather History Graph

Daily Weather History Graph

Search for Another Location

Airport or City:

Trip Planner

Search our weather history database for the weather conditions in past years. The results will help you decide how hot, cold, wet, or windy it might be!

Date:

Astronomy

Aug. 07, 2013 Rise Set
Actual Time 6:35 AM EDT 9:08 PM EDT
Civil Twilight 6:01 AM EDT 9:42 PM EDT
Nautical Twilight 5:18 AM EDT 10:24 PM EDT
Astronomical Twilight 4:29 AM EDT 11:13 PM EDT
Moon 7:30 AM EDT (8/7) 9:06 PM EDT (8/7)
Length of Visible Light 15h 40m
Length of Day
14h 32m
New Moon, 1% of the Moon is Illuminated
Aug 7
New Moon
Aug 14
First Quarter
Aug 20
Full
Aug 28
Last Quarter
Sep 5
New

Hourly Weather History & Observations

Time (EDT) Temp. Dew Point Humidity Pressure Visibility Wind Dir Wind Speed Gust Speed Precip Events Conditions
12:56 AM 63.0 °F 61.0 °F 93% 29.73 in - NNW 3.5 mph - N/A   Unknown
1:56 AM 63.0 °F 60.1 °F 90% 29.73 in - Calm Calm - N/A   Unknown
2:56 AM 63.0 °F 61.0 °F 93% 29.73 in - SSW 4.6 mph - 0.02 in   Unknown
3:56 AM 63.0 °F 61.0 °F 93% 29.69 in - Calm Calm - 0.08 in   Unknown
4:56 AM 63.0 °F 61.0 °F 93% 29.68 in - NW 3.5 mph - N/A   Unknown
5:56 AM 62.1 °F 59.0 °F 90% 29.70 in - Calm Calm - N/A   Unknown
6:56 AM 62.1 °F 59.0 °F 90% 29.72 in - Calm Calm - N/A   Unknown
7:56 AM 62.1 °F 59.0 °F 90% 29.74 in - NNW 9.2 mph - N/A   Unknown
8:56 AM 62.1 °F 59.0 °F 90% 29.75 in - NNW 6.9 mph - N/A   Unknown
9:56 AM 63.0 °F 59.0 °F 87% 29.78 in - NNW 6.9 mph - N/A   Unknown
10:56 AM 61.0 °F 57.9 °F 90% 29.80 in - NW 10.4 mph - N/A   Unknown
11:56 AM 60.1 °F 57.0 °F 90% 29.82 in - NNW 10.4 mph - N/A   Unknown
12:56 PM 60.1 °F 57.0 °F 90% 29.84 in - NNW 8.1 mph - N/A   Unknown
1:56 PM 60.1 °F 57.0 °F 90% 29.86 in - NNW 13.8 mph - N/A   Unknown
2:56 PM 60.1 °F 55.9 °F 86% 29.88 in - NNW 13.8 mph - N/A   Unknown
3:56 PM 60.1 °F 55.9 °F 86% 29.90 in - NNW 15.0 mph - N/A   Unknown
4:56 PM 60.1 °F 55.0 °F 83% 29.91 in - NNW 16.1 mph 21.9 mph N/A   Unknown
5:56 PM 62.1 °F 55.0 °F 78% 29.91 in - NNW 15.0 mph 18.4 mph N/A   Unknown
6:56 PM 62.1 °F 54.0 °F 75% 29.91 in - NNW 11.5 mph - N/A   Unknown
7:56 PM 63.0 °F 54.0 °F 72% 29.93 in - NNW 10.4 mph - N/A   Unknown
8:56 PM 60.1 °F 50.0 °F 69% 29.94 in - WNW 5.8 mph - N/A   Unknown
9:56 PM 55.0 °F 50.0 °F 83% 29.96 in - South 3.5 mph - N/A   Unknown
10:56 PM 53.1 °F 48.9 °F 86% 29.98 in - South 6.9 mph - N/A   Unknown
11:56 PM 51.1 °F 46.9 °F 86% 29.99 in - South 6.9 mph - N/A   Unknown